LHX2H EGLL-EDDF

Flight info

Callsign LHX2H
Flight time 1h 4m
Altitude 35000
Route DET2F DET L6 DVR UL9 KONAN UL607 SPI T180 NIVNU T847 IMCOM IMCOM1A
Aircraft A20N/M-SDE2E3FGHIRWXY/LB1

Departure

Time 2026-04-17 11:33
Airport London Heathrow Airport (EGLL)

Arrival

Time 2026-04-17 12:37
Airport Frankfurt Main Airport (EDDF)
Time Latitude Longitude Altitude Speed Heading
2026-04-17 11:08 51.46999 -0.44698 88 ft 0 kts 269°
2026-04-17 11:23 51.46999 -0.44671 90 ft 3 kts 269°
2026-04-17 11:23 51.46999 -0.44640 88 ft 3 kts 269°
2026-04-17 11:23 51.47000 -0.44610 88 ft 3 kts 269°
2026-04-17 11:23 51.46997 -0.44583 90 ft 3 kts 314°
2026-04-17 11:24 51.46984 -0.44563 92 ft 3 kts 336°
2026-04-17 11:24 51.46975 -0.44557 89 ft 0 kts
2026-04-17 11:28 51.47058 -0.44557 88 ft 21 kts 359°
2026-04-17 11:28 51.47202 -0.44557 88 ft 20 kts
2026-04-17 11:28 51.47338 -0.44557 88 ft 19 kts 360°
2026-04-17 11:29 51.47456 -0.44560 88 ft 12 kts 351°
2026-04-17 11:29 51.47516 -0.44638 90 ft 12 kts 309°
2026-04-17 11:29 51.47584 -0.44649 92 ft 8 kts 33°
2026-04-17 11:29 51.47599 -0.44558 91 ft 12 kts 90°
2026-04-17 11:30 51.47600 -0.44388 90 ft 16 kts 89°
2026-04-17 11:30 51.47594 -0.44138 89 ft 27 kts 92°
2026-04-17 11:30 51.47594 -0.43850 90 ft 21 kts 87°
2026-04-17 11:30 51.47647 -0.43771 91 ft 11 kts 338°
2026-04-17 11:31 51.47720 -0.43838 90 ft 15 kts 329°
2026-04-17 11:31 51.47764 -0.43931 85 ft 4 kts 270°
2026-04-17 11:31 51.47764 -0.43933 85 ft 0 kts 270°
2026-04-17 11:32 51.47764 -0.44076 87 ft 41 kts 269°
2026-04-17 11:32 51.47762 -0.44869 95 ft 101 kts 269°
2026-04-17 11:32 51.47755 -0.46329 114 ft 151 kts 266°
2026-04-17 11:33 51.47769 -0.48019 580 ft 156 kts 265°
2026-04-17 11:33 51.47758 -0.49764 1266 ft 157 kts 263°
2026-04-17 11:33 51.47724 -0.51552 1926 ft 168 kts 262°
2026-04-17 11:33 51.47449 -0.53496 2247 ft 189 kts 243°
2026-04-17 11:34 51.46628 -0.55200 2732 ft 201 kts 218°
2026-04-17 11:34 51.45307 -0.56145 3202 ft 221 kts 191°
2026-04-17 11:34 51.43714 -0.55785 3725 ft 247 kts 158°
2026-04-17 11:34 51.42307 -0.54079 4538 ft 260 kts 141°
2026-04-17 11:35 51.41015 -0.51980 5331 ft 267 kts 138°
2026-04-17 11:35 51.39715 -0.49797 5828 ft 273 kts 138°
2026-04-17 11:35 51.38409 -0.47621 5983 ft 275 kts 138°
2026-04-17 11:35 51.37068 -0.45415 6288 ft 279 kts 138°
2026-04-17 11:36 51.35692 -0.43193 7063 ft 282 kts 139°
2026-04-17 11:36 51.34311 -0.40964 7952 ft 282 kts 139°
2026-04-17 11:36 51.32931 -0.38713 8796 ft 286 kts 139°
2026-04-17 11:36 51.31536 -0.36411 9640 ft 291 kts 139°
2026-04-17 11:37 51.30603 -0.34859 10178 ft 293 kts 139°
2026-04-17 11:37 51.29158 -0.32448 10687 ft 309 kts 139°
2026-04-17 11:37 51.27612 -0.29886 10999 ft 331 kts 139°
2026-04-17 11:37 51.25408 -0.26263 11558 ft 352 kts 139°
2026-04-17 11:38 51.24250 -0.24364 12019 ft 356 kts 139°
2026-04-17 11:38 51.22528 -0.21529 12780 ft 361 kts 139°
2026-04-17 11:38 51.20839 -0.18520 13558 ft 370 kts 129°
2026-04-17 11:38 51.19720 -0.14769 14289 ft 383 kts 111°
2026-04-17 11:39 51.19109 -0.10604 14977 ft 390 kts 102°
2026-04-17 11:39 51.18748 -0.06271 15671 ft 396 kts 99°
2026-04-17 11:39 51.18512 -0.01872 16350 ft 401 kts 97°
2026-04-17 11:39 51.18366 0.02595 16859 ft 405 kts 95°
2026-04-17 11:40 51.18272 0.07106 17483 ft 409 kts 95°
2026-04-17 11:40 51.18200 0.11656 18091 ft 413 kts 95°
2026-04-17 11:40 51.18131 0.16253 18593 ft 417 kts 95°
2026-04-17 11:40 51.18057 0.20845 19073 ft 421 kts 95°
2026-04-17 11:41 51.17974 0.25533 19554 ft 425 kts 95°
2026-04-17 11:41 51.17881 0.30269 20069 ft 429 kts 95°
2026-04-17 11:41 51.17783 0.35034 20598 ft 432 kts 95°
2026-04-17 11:41 51.17679 0.39850 21123 ft 436 kts 95°
2026-04-17 11:42 51.17571 0.44707 21624 ft 440 kts 95°
2026-04-17 11:42 51.17460 0.49601 22149 ft 443 kts 95°
2026-04-17 11:42 51.17347 0.54532 22708 ft 446 kts 95°
2026-04-17 11:42 51.17231 0.59483 23245 ft 449 kts 95°
2026-04-17 11:43 51.17113 0.64474 23705 ft 453 kts 95°
2026-04-17 11:43 51.16991 0.69512 24152 ft 456 kts 95°
2026-04-17 11:43 51.16866 0.74587 24614 ft 459 kts 95°
2026-04-17 11:43 51.16738 0.79689 25074 ft 462 kts 95°
2026-04-17 11:44 51.16609 0.84755 25516 ft 465 kts 95°
2026-04-17 11:44 51.16475 0.89922 25950 ft 468 kts 96°
2026-04-17 11:44 51.16339 0.95117 26434 ft 470 kts 95°
2026-04-17 11:44 51.16199 1.00332 26845 ft 472 kts 95°
2026-04-17 11:45 51.16056 1.05564 27217 ft 475 kts 95°
2026-04-17 11:45 51.15911 1.10837 27565 ft 477 kts 95°
2026-04-17 11:45 51.15762 1.16138 27920 ft 480 kts 95°
2026-04-17 11:45 51.15609 1.21478 28259 ft 483 kts 95°
2026-04-17 11:46 51.15454 1.26833 28594 ft 485 kts 95°
2026-04-17 11:46 51.15295 1.32224 28932 ft 488 kts 95°
2026-04-17 11:46 51.15132 1.37635 29256 ft 490 kts 95°
2026-04-17 11:46 51.14967 1.43068 29678 ft 490 kts 95°
2026-04-17 11:47 51.14803 1.48413 30147 ft 489 kts 95°
2026-04-17 11:47 51.14634 1.53826 30540 ft 488 kts 95°
2026-04-17 11:47 51.14463 1.59214 30904 ft 487 kts 95°
2026-04-17 11:47 51.14289 1.64604 31266 ft 486 kts 95°
2026-04-17 11:48 51.14113 1.69978 31629 ft 486 kts 95°
2026-04-17 11:48 51.13935 1.75338 31992 ft 485 kts 95°
2026-04-17 11:48 51.13754 1.80697 32326 ft 484 kts 95°
2026-04-17 11:48 51.13571 1.86053 32659 ft 483 kts 95°
2026-04-17 11:49 51.13386 1.91390 32966 ft 482 kts 94°
2026-04-17 11:49 51.13200 1.96712 33361 ft 480 kts 94°
2026-04-17 11:49 51.12994 2.02013 33687 ft 479 kts 95°
2026-04-17 11:49 51.12741 2.07291 33977 ft 478 kts 95°
2026-04-17 11:50 51.12458 2.12576 34250 ft 478 kts 96°
2026-04-17 11:50 51.12166 2.17790 34486 ft 478 kts 96°
2026-04-17 11:50 51.11867 2.23058 34722 ft 477 kts 96°
2026-04-17 11:50 51.11569 2.28320 34957 ft 477 kts 96°
2026-04-17 11:51 51.11273 2.33572 35167 ft 477 kts 96°
2026-04-17 11:51 51.10977 2.38851 35215 ft 479 kts 95°
2026-04-17 11:51 51.10383 2.49388 35214 ft 477 kts 95°
2026-04-17 11:52 51.09783 2.59881 35217 ft 477 kts 95°
2026-04-17 11:52 51.08549 2.70149 35217 ft 475 kts 105°
2026-04-17 11:53 51.06791 2.80303 35213 ft 475 kts 107°
2026-04-17 11:53 51.04934 2.90400 35213 ft 476 kts 107°
2026-04-17 11:54 51.03064 3.00502 35211 ft 476 kts 107°
2026-04-17 11:54 51.01208 3.10549 35208 ft 476 kts 107°
2026-04-17 11:55 50.99342 3.20640 35205 ft 476 kts 107°
2026-04-17 11:55 50.97467 3.30730 35196 ft 476 kts 107°
2026-04-17 11:56 50.95581 3.40818 35204 ft 476 kts 107°
2026-04-17 11:56 50.93687 3.50897 35205 ft 477 kts 107°
2026-04-17 11:57 50.91799 3.60891 35207 ft 476 kts 107°
2026-04-17 11:57 50.89880 3.70944 35212 ft 476 kts 107°
2026-04-17 11:58 50.87941 3.80983 35222 ft 476 kts 107°
2026-04-17 11:58 50.85993 3.91014 35223 ft 476 kts 107°
2026-04-17 11:59 50.84036 4.01041 35227 ft 476 kts 107°
2026-04-17 11:59 50.82073 4.11057 35230 ft 476 kts 108°
2026-04-17 12:00 50.80114 4.20996 35219 ft 477 kts 107°
2026-04-17 12:00 50.78134 4.30991 35237 ft 475 kts 107°
2026-04-17 12:01 50.76155 4.40934 35236 ft 474 kts 108°
2026-04-17 12:01 50.74167 4.50870 35235 ft 474 kts 108°
2026-04-17 12:02 50.72171 4.60811 35234 ft 474 kts 107°
2026-04-17 12:02 50.70231 4.70749 35231 ft 474 kts 107°
2026-04-17 12:03 50.68305 4.80713 35232 ft 474 kts 107°
2026-04-17 12:03 50.66369 4.90657 35236 ft 474 kts 107°
2026-04-17 12:04 50.64380 5.00518 35237 ft 474 kts 108°
2026-04-17 12:04 50.62338 5.10405 35233 ft 475 kts 108°
2026-04-17 12:05 50.60286 5.20287 35233 ft 475 kts 107°
2026-04-17 12:05 50.58231 5.30163 35236 ft 475 kts 108°
2026-04-17 12:06 50.56171 5.40033 35233 ft 475 kts 108°
2026-04-17 12:06 50.54113 5.49850 35232 ft 475 kts 108°
2026-04-17 12:07 50.52036 5.59706 35233 ft 475 kts 108°
2026-04-17 12:07 50.50068 5.69594 35229 ft 474 kts 105°
2026-04-17 12:08 50.48230 5.79532 35228 ft 473 kts 105°
2026-04-17 12:08 50.46397 5.89450 35228 ft 473 kts 105°
2026-04-17 12:09 50.44539 5.99347 35224 ft 473 kts 105°
2026-04-17 12:09 50.42662 6.09238 35225 ft 473 kts 105°
2026-04-17 12:10 50.40785 6.19063 35219 ft 473 kts 105°
2026-04-17 12:10 50.38888 6.28942 35037 ft 471 kts 105°
2026-04-17 12:11 50.37941 6.33854 34514 ft 469 kts 105°
2026-04-17 12:11 50.37009 6.38736 33750 ft 467 kts 103°
2026-04-17 12:11 50.36391 6.43719 32842 ft 465 kts 96°
2026-04-17 12:12 50.35629 6.53776 31033 ft 465 kts 95°
2026-04-17 12:12 50.35306 6.58823 30107 ft 465 kts 94°
2026-04-17 12:12 50.34999 6.63806 29156 ft 463 kts 94°
2026-04-17 12:12 50.34692 6.68809 28328 ft 459 kts 95°
2026-04-17 12:13 50.34384 6.73761 27547 ft 454 kts 95°
2026-04-17 12:13 50.34081 6.78647 26815 ft 448 kts 95°
2026-04-17 12:13 50.33755 6.83470 26101 ft 443 kts 98°
2026-04-17 12:13 50.32987 6.88096 25388 ft 437 kts 112°
2026-04-17 12:14 50.31795 6.92452 24708 ft 431 kts 116°
2026-04-17 12:14 50.30534 6.96679 24009 ft 427 kts 116°
2026-04-17 12:14 50.29267 7.00873 23246 ft 423 kts 116°
2026-04-17 12:14 50.28023 7.05005 22475 ft 418 kts 116°
2026-04-17 12:15 50.26795 7.09094 21730 ft 413 kts 116°
2026-04-17 12:15 50.25597 7.13083 21015 ft 408 kts 116°
2026-04-17 12:15 50.24401 7.17068 20287 ft 403 kts 116°
2026-04-17 12:15 50.23215 7.21016 19580 ft 398 kts 116°
2026-04-17 12:16 50.22043 7.24910 18883 ft 394 kts 116°
2026-04-17 12:16 50.20883 7.28763 18140 ft 390 kts 116°
2026-04-17 12:16 50.19750 7.32594 17372 ft 386 kts 114°
2026-04-17 12:16 50.18818 7.36504 16611 ft 383 kts 107°
2026-04-17 12:17 50.18357 7.40563 15909 ft 378 kts 94°
2026-04-17 12:17 50.18333 7.44629 15209 ft 373 kts 89°
2026-04-17 12:17 50.18442 7.48667 14467 ft 371 kts 87°
2026-04-17 12:17 50.18589 7.52668 13789 ft 367 kts 86°
2026-04-17 12:18 50.18745 7.56578 13258 ft 365 kts 86°
2026-04-17 12:18 50.18906 7.60509 12804 ft 360 kts 86°
2026-04-17 12:18 50.19066 7.64387 12340 ft 356 kts 86°
2026-04-17 12:18 50.19225 7.68233 11876 ft 353 kts 86°
2026-04-17 12:19 50.19382 7.72051 11425 ft 350 kts 86°
2026-04-17 12:19 50.19536 7.75828 11246 ft 348 kts 86°
2026-04-17 12:19 50.19689 7.79594 11009 ft 347 kts 86°
2026-04-17 12:19 50.19841 7.83349 10551 ft 345 kts 86°
2026-04-17 12:20 50.19988 7.87029 10360 ft 333 kts 86°
2026-04-17 12:20 50.20127 7.90534 10214 ft 321 kts 86°
2026-04-17 12:20 50.20262 7.93948 10075 ft 310 kts 86°
2026-04-17 12:20 50.20389 7.97189 9843 ft 297 kts 86°
2026-04-17 12:21 50.20513 8.00383 9339 ft 293 kts 87°
2026-04-17 12:21 50.20635 8.03540 8792 ft 290 kts 87°
2026-04-17 12:21 50.20756 8.06662 8381 ft 284 kts 87°
2026-04-17 12:21 50.20870 8.09656 8179 ft 269 kts 88°
2026-04-17 12:22 50.20978 8.12508 7946 ft 258 kts 88°
2026-04-17 12:22 50.21082 8.15276 7606 ft 253 kts 88°
2026-04-17 12:22 50.21184 8.18010 7297 ft 250 kts 88°
2026-04-17 12:22 50.21284 8.20702 7221 ft 249 kts 88°
2026-04-17 12:23 50.21383 8.23407 7207 ft 249 kts 88°
2026-04-17 12:23 50.21477 8.26114 7215 ft 250 kts 88°
2026-04-17 12:23 50.21564 8.28823 7201 ft 250 kts 88°
2026-04-17 12:23 50.21648 8.31535 7213 ft 250 kts 88°
2026-04-17 12:24 50.21733 8.34254 7216 ft 251 kts 88°
2026-04-17 12:24 50.21818 8.36941 7213 ft 250 kts 88°
2026-04-17 12:24 50.21900 8.39683 7213 ft 250 kts 88°
2026-04-17 12:24 50.21982 8.42356 7178 ft 250 kts 88°
2026-04-17 12:25 50.22066 8.45084 6854 ft 252 kts 89°
2026-04-17 12:25 50.22148 8.47799 6581 ft 249 kts 88°
2026-04-17 12:25 50.22231 8.50496 6237 ft 249 kts 89°
2026-04-17 12:25 50.22319 8.53254 5634 ft 260 kts 88°
2026-04-17 12:26 50.22406 8.56096 5183 ft 263 kts 89°
2026-04-17 12:26 50.22462 8.57982 5041 ft 262 kts 88°
2026-04-17 12:26 50.22546 8.60818 4995 ft 262 kts 89°
2026-04-17 12:26 50.22444 8.63654 4995 ft 261 kts 100°
2026-04-17 12:27 50.22107 8.66443 4990 ft 262 kts 103°
2026-04-17 12:27 50.21728 8.69227 4993 ft 262 kts 103°
2026-04-17 12:27 50.21341 8.72003 4996 ft 262 kts 104°
2026-04-17 12:27 50.20955 8.74792 4991 ft 262 kts 103°
2026-04-17 12:28 50.20576 8.77540 4988 ft 252 kts 103°
2026-04-17 12:28 50.20218 8.80149 4998 ft 241 kts 103°
2026-04-17 12:28 50.19870 8.82659 4846 ft 239 kts 104°
2026-04-17 12:28 50.19523 8.85189 4504 ft 238 kts 103°
2026-04-17 12:29 50.19180 8.87711 4184 ft 235 kts 104°
2026-04-17 12:29 50.18844 8.90189 4015 ft 234 kts 103°
2026-04-17 12:29 50.18447 8.92662 3988 ft 235 kts 114°
2026-04-17 12:29 50.17458 8.94631 3989 ft 231 kts 146°
2026-04-17 12:30 50.15991 8.95440 3996 ft 218 kts 179°
2026-04-17 12:30 50.14587 8.94868 3996 ft 206 kts 211°
2026-04-17 12:30 50.13483 8.93510 3994 ft 198 kts 222°
2026-04-17 12:30 50.12487 8.92038 3994 ft 197 kts 226°
2026-04-17 12:31 50.11672 8.90329 3999 ft 196 kts 240°
2026-04-17 12:31 50.11113 8.88418 3991 ft 197 kts 248°
2026-04-17 12:31 50.10637 8.86418 3996 ft 197 kts 249°
2026-04-17 12:31 50.10167 8.84423 3890 ft 195 kts 248°
2026-04-17 12:32 50.09690 8.82434 3598 ft 196 kts 248°
2026-04-17 12:32 50.09215 8.80452 3320 ft 195 kts 248°
2026-04-17 12:32 50.08743 8.78474 3038 ft 196 kts 249°
2026-04-17 12:32 50.08270 8.76493 2767 ft 194 kts 249°
2026-04-17 12:33 50.07799 8.74520 2505 ft 194 kts 249°
2026-04-17 12:33 50.07327 8.72545 2251 ft 195 kts 249°
2026-04-17 12:33 50.06856 8.70575 1998 ft 193 kts 249°
2026-04-17 12:33 50.06403 8.68674 1745 ft 179 kts 249°
2026-04-17 12:34 50.05992 8.66954 1519 ft 163 kts 249°
2026-04-17 12:34 50.05618 8.65391 1302 ft 149 kts 249°
2026-04-17 12:34 50.05271 8.63939 1107 ft 138 kts 249°
2026-04-17 12:34 50.04941 8.62556 920 ft 136 kts 250°
2026-04-17 12:35 50.04596 8.61098 726 ft 147 kts 249°
2026-04-17 12:35 50.04246 8.59638 548 ft 142 kts 250°
2026-04-17 12:35 50.03908 8.58237 361 ft 133 kts 249°
2026-04-17 12:35 50.03632 8.57087 353 ft 89 kts 250°
2026-04-17 12:37 50.03468 8.55784 351 ft 0 kts 280°
2026-04-17 12:37 50.03470 8.55766 354 ft 8 kts 280°
2026-04-17 12:38 50.03483 8.55655 350 ft 11 kts 278°
2026-04-17 12:38 50.03496 8.55546 356 ft 10 kts 288°
2026-04-17 12:38 50.03547 8.55511 353 ft 8 kts
2026-04-17 12:38 50.03584 8.55520 348 ft 0 kts
2026-04-17 12:41 50.03585 8.55520 348 ft 2 kts
2026-04-17 12:41 50.03674 8.55542 350 ft 21 kts
2026-04-17 12:42 50.03818 8.55529 355 ft 20 kts 339°
2026-04-17 12:42 50.03925 8.55485 356 ft 9 kts 13°
2026-04-17 12:42 50.03931 8.55489 348 ft 0 kts 24°
2026-04-17 12:44 50.03942 8.55505 355 ft 6 kts 56°
2026-04-17 12:44 50.03972 8.55626 356 ft 15 kts 71°
2026-04-17 12:44 50.04008 8.55783 354 ft 15 kts 68°
2026-04-17 12:44 50.04044 8.55931 356 ft 15 kts 70°
2026-04-17 12:45 50.04079 8.56081 354 ft 15 kts 70°
2026-04-17 12:45 50.04117 8.56232 352 ft 14 kts 70°
2026-04-17 12:45 50.04149 8.56375 353 ft 14 kts 70°
2026-04-17 12:45 50.04184 8.56523 357 ft 16 kts 69°
2026-04-17 12:46 50.04222 8.56678 356 ft 14 kts 73°
2026-04-17 12:46 50.04269 8.56804 351 ft 13 kts 21°
2026-04-17 12:46 50.04356 8.56830 350 ft 13 kts 11°
2026-04-17 12:46 50.04445 8.56855 348 ft 13 kts
2026-04-17 12:47 50.04531 8.56882 348 ft 12 kts 14°
2026-04-17 12:47 50.04612 8.56913 352 ft 12 kts 13°
2026-04-17 12:47 50.04653 8.56958 354 ft 6 kts 79°
2026-04-17 12:47 50.04654 8.57019 351 ft 5 kts 91°
2026-04-17 12:48 50.04653 8.57055 348 ft 0 kts 91°